Washington, MO

11:25 PM CDT on June 25, 2017 (GMT -0500)
Washington

Weather History for KFYG - December, 2013

Change the Weather History Date:

Saturday, December 21, 2013

  Actual Average (KSUS) Record (KSUS)
Temperature  
Mean Temperature 32 °F -  
Max Temperature 33 °F 38 °F 64 °F (2015)
Min Temperature 32 °F 20 °F 5 °F (2000)
Degree Days  
Heating Degree Days 32    
Moisture  
Dew Point 32 °F    
Average Humidity 100    
Maximum Humidity 100    
Minimum Humidity 100    
Precipitation  
Precipitation 0.44 in - - ()
Sea Level Pressure  
Sea Level Pressure 29.72 in    
Wind  
Wind Speed 4 mph (NNW)    
Max Wind Speed 9 mph    
Max Gust Speed -    
Visibility 6 miles    
Events Rain    
Averages and records for this station are not official NWS values.
T = Trace of Precipitation, MM = Missing Value Source: NWS Daily Summary

Daily Weather History Graph

Daily Weather History Graph

Search for Another Location

Airport or City:

Trip Planner

Search our weather history database for the weather conditions in past years. The results will help you decide how hot, cold, wet, or windy it might be!

Date:

Astronomy

Dec. 21, 2013 Rise Set
Actual Time 7:18 AM CST 4:46 PM CST
Civil Twilight 6:48 AM CST 5:16 PM CST
Nautical Twilight 6:14 AM CST 5:49 PM CST
Astronomical Twilight 5:42 AM CST 6:21 PM CST
Moon 9:00 PM CST (12/21) 9:46 AM CST (12/21)
Length of Visible Light 10h 27m
Length of Day
9h 28m
Waning Gibbous, 84% of the Moon is Illuminated
Dec 21
Waning Gibbous
Dec 25
Last Quarter
Jan 1
New
Jan 7
First Quarter
Jan 15
Full

Hourly Weather History & Observations

Time (CST) Temp. Windchill Dew Point Humidity Pressure Visibility Wind Dir Wind Speed Gust Speed Precip Events Conditions
12:15 AM 33.8 °F 30.8 °F 33.8 °F 100% 29.86 in 4.0 mi West 3.5 mph - N/A Rain Light Rain
12:35 AM 32.0 °F 25.6 °F 32.0 °F 100% 29.84 in 5.0 mi NNW 6.9 mph - N/A Rain Light Rain
12:55 AM 32.0 °F 25.6 °F 32.0 °F 100% 29.83 in 6.0 mi NNW 6.9 mph - N/A   Overcast
1:15 AM 32.0 °F 25.6 °F 32.0 °F 100% 29.83 in 5.0 mi WNW 6.9 mph - N/A   Overcast
1:35 AM 32.0 °F - 32.0 °F 100% 29.82 in 5.0 mi Calm Calm - N/A Rain Light Rain
1:55 AM 32.0 °F - 32.0 °F 100% 29.82 in 4.0 mi Calm Calm - N/A Rain Light Rain
2:15 AM 32.0 °F - 32.0 °F 100% 29.82 in 3.0 mi Calm Calm - N/A Rain Light Rain
2:55 AM 32.0 °F 27.5 °F 32.0 °F 100% 29.84 in 2.0 mi WNW 4.6 mph - 0.07 in Rain Light Rain
3:15 AM 32.0 °F 25.6 °F 32.0 °F 100% 29.79 in 2.0 mi NNW 6.9 mph - 0.03 in Rain Light Rain
3:35 AM 32.0 °F - 32.0 °F 100% 29.76 in 2.0 mi Calm Calm - 0.10 in Rain Light Rain
3:55 AM 32.0 °F - 32.0 °F 100% 29.80 in 3.0 mi Calm Calm - 0.14 in Rain Light Rain
4:15 AM 32.0 °F - 32.0 °F 100% 29.80 in 3.0 mi Calm Calm - 0.02 in Rain Light Rain
4:35 AM 32.0 °F 25.6 °F 32.0 °F 100% 29.81 in 3.0 mi NW 6.9 mph - 0.05 in Rain Rain
4:55 AM 32.0 °F 28.7 °F 32.0 °F 100% 29.80 in 3.0 mi North 3.5 mph - 0.07 in Rain Light Rain
5:15 AM 32.0 °F - 32.0 °F 100% 29.78 in 4.0 mi Calm Calm - N/A Rain Light Rain
5:35 AM 32.0 °F - 32.0 °F 100% 29.76 in 8.0 mi Calm Calm - N/A   Mostly Cloudy
5:55 AM 32.0 °F - 32.0 °F 100% 29.75 in 10.0 mi Calm Calm - N/A   Overcast
6:15 AM 32.0 °F 28.7 °F 32.0 °F 100% 29.77 in 10.0 mi North 3.5 mph - N/A Rain Light Rain
6:35 AM 32.0 °F 27.5 °F 32.0 °F 100% 29.79 in 10.0 mi NNW 4.6 mph - N/A   Overcast
6:55 AM 32.0 °F 28.7 °F 32.0 °F 100% 29.79 in 10.0 mi NE 3.5 mph - N/A   Overcast
7:15 AM 32.0 °F - 32.0 °F 100% 29.80 in 7.0 mi Calm Calm - N/A Rain Light Rain
7:35 AM 32.0 °F 27.5 °F 32.0 °F 100% 29.81 in 7.0 mi NNW 4.6 mph - N/A Rain Light Rain
7:55 AM 32.0 °F 24.8 °F 32.0 °F 100% 29.83 in 6.0 mi NNW 8.1 mph - 0.01 in Rain Light Rain
8:15 AM 32.0 °F 26.4 °F 32.0 °F 100% 29.81 in 5.0 mi North 5.8 mph - 0.01 in Rain Light Rain
9:35 AM 32.0 °F - 32.0 °F 100% 29.79 in 3.0 mi Calm Calm - N/A Rain Light Rain
9:55 AM 32.0 °F - 32.0 °F 100% 29.79 in 4.0 mi Calm Calm - N/A Rain Light Rain
10:15 AM 32.0 °F 27.5 °F 32.0 °F 100% 29.78 in 5.0 mi East 4.6 mph - N/A Rain Light Rain
10:35 AM 32.0 °F - 32.0 °F 100% 29.78 in 6.0 mi Calm Calm - N/A   Scattered Clouds
10:55 AM 32.0 °F 27.5 °F 32.0 °F 100% 29.79 in 4.0 mi NNW 4.6 mph - N/A Rain Light Rain
11:15 AM 33.8 °F 27.7 °F 33.8 °F 100% 29.79 in 3.0 mi North 6.9 mph - 0.01 in Rain Light Rain
11:35 AM 32.0 °F 24.8 °F 32.0 °F 100% 29.77 in 4.0 mi North 8.1 mph - 0.01 in Rain Light Rain
11:55 AM 32.0 °F 27.5 °F 32.0 °F 100% 29.75 in 7.0 mi NNE 4.6 mph - 0.02 in Rain Light Rain
12:15 PM 32.0 °F 28.7 °F 32.0 °F 100% 29.72 in 10.0 mi NNE 3.5 mph - N/A   Mostly Cloudy
12:35 PM 32.0 °F 27.5 °F 32.0 °F 100% 29.70 in 8.0 mi North 4.6 mph - N/A Rain Light Rain
12:55 PM 32.0 °F 26.4 °F 32.0 °F 100% 29.69 in 10.0 mi North 5.8 mph - N/A   Overcast
1:15 PM 32.0 °F 26.4 °F 32.0 °F 100% 29.69 in 6.0 mi NNW 5.8 mph - N/A Rain Light Rain
1:35 PM 32.0 °F 26.4 °F 32.0 °F 100% 29.67 in 5.0 mi North 5.8 mph - N/A Rain Light Rain
1:55 PM 32.0 °F 26.4 °F 32.0 °F 100% 29.67 in 5.0 mi North 5.8 mph - 0.01 in Rain Light Rain
2:15 PM 32.0 °F 24.2 °F 32.0 °F 100% 29.70 in 3.0 mi North 9.2 mph - 0.01 in Rain Light Rain
2:35 PM 32.0 °F 24.8 °F 32.0 °F 100% 29.68 in 2.5 mi North 8.1 mph - 0.06 in Rain Light Rain
2:55 PM 32.0 °F 25.6 °F 32.0 °F 100% 29.66 in 3.0 mi North 6.9 mph - 0.09 in Rain Light Rain
3:15 PM 32.0 °F 25.6 °F 32.0 °F 100% 29.65 in 5.0 mi North 6.9 mph - N/A Rain Light Rain
3:35 PM 32.0 °F 26.4 °F 32.0 °F 100% 29.66 in 6.0 mi North 5.8 mph - N/A Rain Light Rain
3:55 PM 32.0 °F 28.7 °F 32.0 °F 100% 29.69 in 6.0 mi North 3.5 mph - N/A Rain Light Rain
4:15 PM 32.0 °F - 32.0 °F 100% 29.69 in 3.0 mi Calm Calm - N/A Rain Light Rain
4:35 PM 32.0 °F - 32.0 °F 100% 29.68 in 3.0 mi Calm Calm - 0.01 in Rain Light Rain
4:55 PM 32.0 °F 27.5 °F 32.0 °F 100% 29.65 in 4.0 mi North 4.6 mph - 0.02 in Rain Light Rain
5:15 PM 32.0 °F 25.6 °F 32.0 °F 100% 29.66 in 7.0 mi North 6.9 mph - N/A Rain Light Rain
5:35 PM 32.0 °F 24.8 °F 32.0 °F 100% 29.65 in 10.0 mi North 8.1 mph - N/A Rain Light Rain
5:55 PM 32.0 °F 27.5 °F 32.0 °F 100% 29.66 in 10.0 mi North 4.6 mph - N/A Rain Light Rain
6:15 PM 32.0 °F 28.7 °F 32.0 °F 100% 29.66 in 10.0 mi NNW 3.5 mph - N/A   Mostly Cloudy
6:35 PM 32.0 °F 27.5 °F 32.0 °F 100% 29.68 in 10.0 mi NNW 4.6 mph - N/A   Overcast
6:55 PM 32.0 °F 26.4 °F 32.0 °F 100% 29.64 in 10.0 mi NNW 5.8 mph - N/A   Overcast
7:15 PM 32.0 °F 26.4 °F 32.0 °F 100% 29.65 in 10.0 mi North 5.8 mph - N/A   Overcast
7:35 PM 32.0 °F 25.6 °F 32.0 °F 100% 29.65 in 10.0 mi NNW 6.9 mph - N/A   Overcast
7:55 PM 32.0 °F 26.4 °F 32.0 °F 100% 29.65 in 10.0 mi NW 5.8 mph - N/A   Overcast
8:15 PM 32.0 °F 27.5 °F 32.0 °F 100% 29.63 in 7.0 mi North 4.6 mph - N/A   Overcast
8:35 PM 32.0 °F 28.7 °F 32.0 °F 100% 29.59 in 10.0 mi NE 3.5 mph - N/A   Overcast
8:55 PM 32.0 °F - 32.0 °F 100% 29.56 in 10.0 mi Calm Calm - N/A   Overcast
9:15 PM 32.0 °F - 32.0 °F 100% 29.56 in 10.0 mi Calm Calm - N/A   Overcast
9:35 PM 32.0 °F - 32.0 °F 100% 29.62 in 10.0 mi Calm Calm - N/A   Overcast
9:55 PM 32.0 °F 26.4 °F 32.0 °F 100% 29.67 in 10.0 mi WNW 5.8 mph - N/A   Overcast
10:15 PM 32.0 °F - 32.0 °F 100% 29.65 in 10.0 mi Calm Calm - N/A   Overcast
10:35 PM 32.0 °F - 32.0 °F 100% 29.66 in 9.0 mi Calm Calm - N/A   Overcast
10:55 PM 32.0 °F 27.5 °F 32.0 °F 100% 29.66 in 3.0 mi NW 4.6 mph - N/A   Overcast
11:15 PM 32.0 °F - 32.0 °F 100% 29.67 in 2.5 mi Calm Calm - N/A   Mostly Cloudy
11:35 PM 32.0 °F 28.7 °F 32.0 °F 100% 29.68 in 2.5 mi West 3.5 mph - N/A   Mostly Cloudy
11:55 PM 32.0 °F 25.6 °F 32.0 °F 100% 29.68 in 1.2 mi WNW 6.9 mph - N/A   Overcast